This is the latest recevied weather packets stored in our database for station/object W4SNA-3. If no packets are shown the sender has not sent any weather packets the latest 10 day(s).
| Time | Temp. | Humidity | Pressure | Rain* | Wind** | Luminosity | Snow |
|---|---|---|---|---|---|---|---|
| 1777748808 | 15° C | 35% | 1009.3 hPa | 0 mm | - | - | - |
| 1777748508 | 15.56° C | 36% | 1009.3 hPa | 0 mm | - | - | - |
| 1777748208 | 15.56° C | 37% | 1009.5 hPa | 0 mm | - | - | - |
| 1777747909 | 15.56° C | 39% | 1009.4 hPa | 0 mm | - | - | - |
| 1777747608 | 15.56° C | 40% | 1009.4 hPa | 0 mm | - | - | - |
| 1777747308 | 15.56° C | 36% | 1009.4 hPa | 0 mm | - | - | - |
| 1777747008 | 15° C | 38% | 1009.3 hPa | 0 mm | - | - | - |
| 1777746708 | 15° C | 38% | 1009.5 hPa | 0 mm | - | - | - |
| 1777746246 | 14.44° C | 39% | 1009.6 hPa | 0 mm | - | - | - |
| 1777745945 | 14.44° C | 41% | 1009.7 hPa | 0 mm | - | - | - |
| 1777745647 | 13.89° C | 40% | 1009.7 hPa | 0 mm | - | - | - |
| 1777745346 | 13.89° C | 40% | 1009.8 hPa | 0 mm | - | - | - |
| 1777744787 | 13.33° C | 41% | 1010.1 hPa | 0 mm | - | - | - |
| 1777744487 | 13.33° C | 41% | 1010 hPa | 0 mm | - | - | - |
| 1777744193 | 13.33° C | 45% | 1010 hPa | 0 mm | - | - | - |
| 1777743885 | 12.78° C | 42% | 1010 hPa | 0 mm | - | - | - |
| 1777743599 | 12.78° C | 42% | 1010 hPa | 0 mm | - | - | - |
| 1777743097 | 12.78° C | 45% | 1010.2 hPa | 0 mm | - | - | - |
| 1777742797 | 12.78° C | 43% | 1010.4 hPa | 0 mm | - | - | - |
| 1777742497 | 12.78° C | 40% | 1010.5 hPa | 0 mm | - | - | - |
| 1777742197 | 13.33° C | 41% | 1010.5 hPa | 0 mm | - | - | - |
| 1777741897 | 13.33° C | 41% | 1010.3 hPa | 0 mm | - | - | - |
| 1777741597 | 13.89° C | 39% | 1010.5 hPa | 0 mm | - | - | - |
| 1777741297 | 13.89° C | 41% | 1010.5 hPa | 0 mm | - | - | - |
| 1777740999 | 13.89° C | 44% | 1010.7 hPa | 0 mm | - | - | - |
* Rain latest hour (hover to see other rain measurements)
** Current wind speed in m/s (hover to see current wind gust speed)